Time,TemperatureF,DewpointF,PressureIn,WindDirection,WindDirectionDegrees,WindSpeedMPH,WindSpeedGustMPH,Humidity,HourlyPrecipIn,Conditions,Clouds,dailyrainin,SoftwareType,DateUTC
2013-07-10 00:04:00,61.0,47.0,30.07,WSW,247,1.1,-999.0,60,-99.99,,,0.00,Acu-Link.com,2013-07-10 06:04:00,
2013-07-10 00:19:00,60.3,45.5,30.06,West,270,2.7,-999.0,58,-99.99,,,0.00,Acu-Link.com,2013-07-10 06:19:00,
2013-07-10 00:34:00,59.9,46.8,30.07,NW,315,1.7,-999.0,62,-99.99,,,0.00,Acu-Link.com,2013-07-10 06:34:00,
2013-07-10 00:49:00,59.7,45.8,30.07,NW,315,2.7,-999.0,60,-99.99,,,0.00,Acu-Link.com,2013-07-10 06:49:00,
2013-07-10 01:04:00,60.8,45.5,30.06,NNE,22,3.2,-999.0,57,-99.99,,,0.00,Acu-Link.com,2013-07-10 07:04:00,
2013-07-10 01:19:00,59.0,46.0,30.06,South,180,1.7,-999.0,62,-99.99,,,0.00,Acu-Link.com,2013-07-10 07:19:00,
2013-07-10 01:35:00,58.3,44.9,30.05,North,0,2.7,-999.0,61,-99.99,,,0.00,Acu-Link.com,2013-07-10 07:35:00,
2013-07-10 01:50:00,56.1,46.1,30.06,NNW,337,1.1,-999.0,69,-99.99,,,0.00,Acu-Link.com,2013-07-10 07:50:00,
2013-07-10 02:05:00,57.7,44.3,30.07,NNE,22,4.7,-999.0,61,-99.99,,,0.00,Acu-Link.com,2013-07-10 08:05:00,
2013-07-10 02:20:00,58.5,44.7,30.06,North,0,5.3,-999.0,60,-99.99,,,0.00,Acu-Link.com,2013-07-10 08:20:00,
2013-07-10 02:35:00,57.6,44.7,30.06,SSE,157,1.1,-999.0,62,-99.99,,,0.00,Acu-Link.com,2013-07-10 08:35:00,
2013-07-10 02:50:00,56.1,45.3,30.06,WNW,292,2.2,-999.0,67,-99.99,,,0.00,Acu-Link.com,2013-07-10 08:50:00,
2013-07-10 03:06:00,54.7,44.3,30.07,WSW,247,0.0,-999.0,68,-99.99,,,0.00,Acu-Link.com,2013-07-10 09:06:00,
2013-07-10 03:21:00,54.1,45.3,30.07,ESE,112,2.2,-999.0,72,-99.99,,,0.00,Acu-Link.com,2013-07-10 09:21:00,
2013-07-10 03:36:00,53.4,46.4,30.07,NNW,337,0.0,-999.0,77,-99.99,,,0.00,Acu-Link.com,2013-07-10 09:36:00,
2013-07-10 03:51:00,52.3,45.6,30.07,SW,225,1.1,-999.0,78,-99.99,,,0.00,Acu-Link.com,2013-07-10 09:51:00,
2013-07-10 04:07:00,52.2,45.6,30.07,NNE,22,2.2,-999.0,78,-99.99,,,0.00,Acu-Link.com,2013-07-10 10:07:00,
2013-07-10 04:22:00,52.5,46.2,30.08,SSE,157,1.7,-999.0,79,-99.99,,,0.00,Acu-Link.com,2013-07-10 10:22:00,
2013-07-10 04:37:00,52.3,45.6,30.07,NW,315,4.2,-999.0,78,-99.99,,,0.00,Acu-Link.com,2013-07-10 10:37:00,
2013-07-10 04:52:00,54.3,45.5,30.08,North,0,4.2,-999.0,72,-99.99,,,0.00,Acu-Link.com,2013-07-10 10:52:00,
2013-07-10 05:07:00,54.0,45.5,30.08,NE,45,3.2,-999.0,73,-99.99,,,0.00,Acu-Link.com,2013-07-10 11:07:00,
2013-07-10 05:22:00,53.6,46.6,30.08,West,270,1.1,-999.0,77,-99.99,,,0.00,Acu-Link.com,2013-07-10 11:22:00,
2013-07-10 05:37:00,53.2,46.9,30.09,NE,45,0.0,-999.0,79,-99.99,,,0.00,Acu-Link.com,2013-07-10 11:37:00,
2013-07-10 05:52:00,53.6,46.6,30.09,NE,45,3.2,-999.0,77,-99.99,,,0.00,Acu-Link.com,2013-07-10 11:52:00,
2013-07-10 06:08:00,53.6,46.6,30.09,NNE,22,0.0,-999.0,77,-99.99,,,0.00,Acu-Link.com,2013-07-10 12:08:00,
2013-07-10 06:23:00,53.2,47.5,30.10,WSW,247,1.7,-999.0,81,-99.99,,,0.00,Acu-Link.com,2013-07-10 12:23:00,
2013-07-10 06:38:00,53.6,47.2,30.10,South,180,0.0,-999.0,79,-99.99,,,0.00,Acu-Link.com,2013-07-10 12:38:00,
2013-07-10 06:53:00,54.7,48.3,30.11,NNW,337,2.2,-999.0,79,-99.99,,,0.00,Acu-Link.com,2013-07-10 12:53:00,
2013-07-10 07:09:00,56.1,48.6,30.11,SE,135,1.7,-999.0,76,-99.99,,,0.00,Acu-Link.com,2013-07-10 13:09:00,
2013-07-10 07:24:00,57.4,50.2,30.11,ESE,112,0.0,-999.0,77,-99.99,,,0.00,Acu-Link.com,2013-07-10 13:24:00,
2013-07-10 07:39:00,58.3,49.7,30.12,South,180,0.0,-999.0,73,-99.99,,,0.00,Acu-Link.com,2013-07-10 13:39:00,
2013-07-10 07:54:00,60.4,50.6,30.11,SW,225,0.0,-999.0,70,-99.99,,,0.00,Acu-Link.com,2013-07-10 13:54:00,
2013-07-10 08:10:00,62.4,49.6,30.12,SSW,202,2.2,-999.0,63,-99.99,,,0.00,Acu-Link.com,2013-07-10 14:10:00,
2013-07-10 08:25:00,65.1,51.3,30.12,SSE,157,2.7,-999.0,61,-99.99,,,0.00,Acu-Link.com,2013-07-10 14:25:00,
2013-07-10 08:40:00,66.4,51.6,30.13,SSE,157,2.2,-999.0,59,-99.99,,,0.00,Acu-Link.com,2013-07-10 14:40:00,
2013-07-10 08:55:00,66.0,52.2,30.12,SW,225,0.0,-999.0,61,-99.99,,,0.00,Acu-Link.com,2013-07-10 14:55:00,
2013-07-10 09:11:00,66.9,53.0,30.12,West,270,0.0,-999.0,61,-99.99,,,0.00,Acu-Link.com,2013-07-10 15:11:00,
2013-07-10 09:26:00,66.4,56.3,30.10,South,180,0.0,-999.0,70,-99.99,,,0.00,Acu-Link.com,2013-07-10 15:26:00,
2013-07-10 09:41:00,66.7,55.0,30.11,WSW,247,0.0,-999.0,66,-99.99,,,0.00,Acu-Link.com,2013-07-10 15:41:00,
2013-07-10 09:57:00,66.7,58.1,30.11,South,180,4.2,-999.0,74,-99.99,,,0.00,Acu-Link.com,2013-07-10 15:57:00,
2013-07-10 10:12:00,72.5,56.4,30.10,ESE,112,2.7,-999.0,57,-99.99,,,0.00,Acu-Link.com,2013-07-10 16:12:00,
2013-07-10 10:27:00,73.0,57.8,30.10,South,180,1.7,-999.0,59,-99.99,,,0.00,Acu-Link.com,2013-07-10 16:27:00,
2013-07-10 10:42:00,76.1,58.2,30.11,South,180,2.7,-999.0,54,-99.99,,,0.00,Acu-Link.com,2013-07-10 16:42:00,
2013-07-10 10:58:00,76.8,53.8,30.09,NNW,337,3.2,-999.0,45,-99.99,,,0.00,Acu-Link.com,2013-07-10 16:58:00,
2013-07-10 11:13:00,80.2,56.3,30.08,ESE,112,1.1,-999.0,44,-99.99,,,0.00,Acu-Link.com,2013-07-10 17:13:00,
2013-07-10 11:28:00,82.2,54.0,30.07,East,90,3.2,-999.0,38,-99.99,,,0.00,Acu-Link.com,2013-07-10 17:28:00,
2013-07-10 11:43:00,82.6,54.4,30.06,ENE,67,4.7,-999.0,38,-99.99,,,0.00,Acu-Link.com,2013-07-10 17:43:00,
2013-07-10 11:59:00,83.7,53.9,30.06,North,0,4.2,-999.0,36,-99.99,,,0.00,Acu-Link.com,2013-07-10 17:59:00,
2013-07-10 12:14:00,84.7,52.4,30.04,ENE,67,3.2,-999.0,33,-99.99,,,0.00,Acu-Link.com,2013-07-10 18:14:00,
2013-07-10 12:29:00,85.6,52.3,30.03,WNW,292,3.2,-999.0,32,-99.99,,,0.00,Acu-Link.com,2013-07-10 18:29:00,
2013-07-10 12:45:00,86.9,50.8,30.02,SSW,202,2.2,-999.0,29,-99.99,,,0.00,Acu-Link.com,2013-07-10 18:45:00,
2013-07-10 13:00:00,88.5,52.1,30.01,SSW,202,3.7,-999.0,29,-99.99,,,0.00,Acu-Link.com,2013-07-10 19:00:00,
2013-07-10 13:15:00,88.3,45.8,29.99,NE,45,0.0,-999.0,23,-99.99,,,0.00,Acu-Link.com,2013-07-10 19:15:00,
2013-07-10 13:30:00,89.2,47.7,29.98,SSE,157,3.2,-999.0,24,-99.99,,,0.00,Acu-Link.com,2013-07-10 19:30:00,
2013-07-10 13:45:00,90.1,48.4,29.97,SSE,157,4.7,-999.0,24,-99.99,,,0.00,Acu-Link.com,2013-07-10 19:45:00,
2013-07-10 14:01:00,87.4,45.0,29.97,North,0,6.3,-999.0,23,-99.99,,,0.00,Acu-Link.com,2013-07-10 20:01:00,
2013-07-10 14:16:00,85.8,50.8,29.96,NNE,22,3.2,-999.0,30,-99.99,,,0.00,Acu-Link.com,2013-07-10 20:16:00,
2013-07-10 14:31:00,85.8,42.5,29.95,NE,45,7.3,-999.0,22,-99.99,,,0.00,Acu-Link.com,2013-07-10 20:31:00,
2013-07-10 14:46:00,84.9,45.1,29.95,South,180,4.2,-999.0,25,-99.99,,,0.00,Acu-Link.com,2013-07-10 20:46:00,
2013-07-10 15:01:00,83.5,46.0,29.94,NNE,22,3.2,-999.0,27,-99.99,,,0.00,Acu-Link.com,2013-07-10 21:01:00,
2013-07-10 15:17:00,83.3,43.8,29.94,NNE,22,7.8,-999.0,25,-99.99,,,0.00,Acu-Link.com,2013-07-10 21:17:00,
2013-07-10 15:32:00,85.1,48.3,29.93,NE,45,8.9,-999.0,28,-99.99,,,0.00,Acu-Link.com,2013-07-10 21:32:00,
2013-07-10 15:47:00,83.3,45.8,29.95,NNE,22,3.7,-999.0,27,-99.99,,,0.00,Acu-Link.com,2013-07-10 21:47:00,
2013-07-10 16:02:00,86.9,46.8,29.93,NNE,22,7.3,-999.0,25,-99.99,,,0.00,Acu-Link.com,2013-07-10 22:02:00,
2013-07-10 16:18:00,80.6,51.9,29.92,South,180,9.4,-999.0,37,-99.99,,,0.00,Acu-Link.com,2013-07-10 22:18:00,
2013-07-10 16:33:00,79.5,50.2,29.92,South,180,8.3,-999.0,36,-99.99,,,0.00,Acu-Link.com,2013-07-10 22:33:00,
2013-07-10 16:48:00,77.9,52.3,29.91,South,180,8.9,-999.0,41,-99.99,,,0.00,Acu-Link.com,2013-07-10 22:48:00,
2013-07-10 17:03:00,77.7,52.8,29.90,South,180,5.3,-999.0,42,-99.99,,,0.00,Acu-Link.com,2013-07-10 23:03:00,
2013-07-10 17:18:00,78.8,51.0,29.90,South,180,4.7,-999.0,38,-99.99,,,0.00,Acu-Link.com,2013-07-10 23:18:00,
2013-07-10 17:33:00,81.3,54.0,29.88,South,180,4.7,-999.0,39,-99.99,,,0.00,Acu-Link.com,2013-07-10 23:33:00,
2013-07-10 17:49:00,83.8,53.2,29.89,West,270,0.0,-999.0,35,-99.99,,,0.00,Acu-Link.com,2013-07-10 23:49:00,
2013-07-10 18:04:00,81.3,53.2,29.89,ENE,67,3.2,-999.0,38,-99.99,,,0.00,Acu-Link.com,2013-07-11 00:04:00,
2013-07-10 18:19:00,79.9,53.4,29.88,NE,45,2.7,-999.0,40,-99.99,,,0.00,Acu-Link.com,2013-07-11 00:19:00,
2013-07-10 18:35:00,79.2,54.8,29.88,NNE,22,2.7,-999.0,43,-99.99,,,0.00,Acu-Link.com,2013-07-11 00:35:00,
2013-07-10 18:50:00,77.5,53.8,29.88,NE,45,4.2,-999.0,44,-99.99,,,0.00,Acu-Link.com,2013-07-11 00:50:00,
2013-07-10 19:05:00,76.3,53.4,29.88,NE,45,4.2,-999.0,45,-99.99,,,0.00,Acu-Link.com,2013-07-11 01:05:00,
2013-07-10 19:20:00,76.1,52.6,29.87,NE,45,3.7,-999.0,44,-99.99,,,0.00,Acu-Link.com,2013-07-11 01:20:00,
2013-07-10 19:36:00,74.1,54.3,29.88,NE,45,5.3,-999.0,50,-99.99,,,0.00,Acu-Link.com,2013-07-11 01:36:00,
2013-07-10 19:51:00,72.7,54.0,29.89,NNE,22,4.7,-999.0,52,-99.99,,,0.00,Acu-Link.com,2013-07-11 01:51:00,
2013-07-10 20:06:00,72.5,53.9,29.89,NE,45,6.8,-999.0,52,-99.99,,,0.00,Acu-Link.com,2013-07-11 02:06:00,
2013-07-10 20:21:00,73.9,50.0,29.89,SE,135,6.8,-999.0,43,-99.99,,,0.00,Acu-Link.com,2013-07-11 02:21:00,
2013-07-10 20:36:00,72.7,54.6,29.90,NE,45,2.7,-999.0,53,-99.99,,,0.00,Acu-Link.com,2013-07-11 02:36:00,
2013-07-10 20:52:00,72.3,50.3,29.90,SE,135,6.8,-999.0,46,-99.99,,,0.00,Acu-Link.com,2013-07-11 02:52:00,
2013-07-10 21:07:00,73.2,52.3,29.92,East,90,5.8,-999.0,48,-99.99,,,0.00,Acu-Link.com,2013-07-11 03:07:00,
2013-07-10 21:22:00,69.6,51.2,29.93,ENE,67,6.8,-999.0,52,-99.99,,,0.00,Acu-Link.com,2013-07-11 03:22:00,
2013-07-10 21:37:00,71.2,50.5,29.93,ESE,112,14.0,-999.0,48,-99.99,,,0.00,Acu-Link.com,2013-07-11 03:37:00,
2013-07-10 21:53:00,71.2,49.9,29.95,East,90,9.4,-999.0,47,-99.99,,,0.00,Acu-Link.com,2013-07-11 03:53:00,
2013-07-10 22:08:00,71.8,49.9,29.96,ENE,67,15.0,-999.0,46,-99.99,,,0.00,Acu-Link.com,2013-07-11 04:08:00,
2013-07-10 22:23:00,70.2,48.4,29.97,ESE,112,8.9,-999.0,46,-99.99,,,0.00,Acu-Link.com,2013-07-11 04:23:00,
2013-07-10 22:38:00,70.7,50.0,29.98,South,180,15.0,-999.0,48,-99.99,,,0.00,Acu-Link.com,2013-07-11 04:38:00,
2013-07-10 22:53:00,69.3,48.8,29.97,SE,135,9.9,-999.0,48,-99.99,,,0.00,Acu-Link.com,2013-07-11 04:53:00,
2013-07-10 23:08:00,68.2,48.8,29.98,East,90,10.4,-999.0,50,-99.99,,,0.00,Acu-Link.com,2013-07-11 05:08:00,
2013-07-10 23:24:00,68.5,49.1,29.99,NE,45,8.3,-999.0,50,-99.99,,,0.00,Acu-Link.com,2013-07-11 05:24:00,
2013-07-10 23:39:00,67.3,49.1,30.00,ESE,112,7.3,-999.0,52,-99.99,,,0.00,Acu-Link.com,2013-07-11 05:39:00,
2013-07-10 23:54:00,68.0,50.2,30.00,SE,135,8.3,-999.0,53,-99.99,,,0.00,Acu-Link.com,2013-07-11 05:54:00,